AirNav   Air Wisconsin Up To $57,000 Bonus
 
 1608 users online  

KCGS College Park Airport
College Park, Maryland, USA

GOING TO COLLEGE PARK?


FAA INFORMATION EFFECTIVE 20 MAY 2021

Location

FAA Identifier: CGS
Lat/Long: 38-58-50.1000N 076-55-20.3000W
38-58.835000N 076-55.338333W
38.9805833,-76.9223056
(estimated)
Elevation: 48.4 ft. / 14.8 m (surveyed)
Variation: 11W (2000)
From city: 1 mile E of COLLEGE PARK, MD
Time zone: UTC -4 (UTC -5 during Standard Time)
Zip code: 20740

Airport Operations

Airport use: Open to the public
Activation date: 04/1940
Control tower: no
ARTCC: WASHINGTON CENTER
FSS: LEESBURG FLIGHT SERVICE STATION
NOTAMs facility: CGS (NOTAM-D service available)
Attendance: 0700-2200,
Wind indicator: lighted
Segmented circle: yes
Lights: ACTVT MIRL RWY 15/33 - CTAF.
Beacon: white-green (lighted land airport)
Operates sunset to sunrise.

Airport Communications

CTAF/UNICOM: 122.975
WX AWOS-3: 121.225 (301-864-5497)
POTOMAC APPROACH: 125.65 ;DC FRZ 124.7
POTOMAC DEPARTURE: 125.65 ;DC FRZ 124.7
IRONS STAR: 126.4
WX ASOS at DCA (9 nm SW): 132.65 (703-418-1177)
WX AWOS-3 at FME (10 nm NE): 123.925
WX AWOS-3PT at GAI (16 nm NW): 128.275 (301-977-2971)
WX ASOS at BWI (17 nm NE): PHONE 410-691-1278

Nearby radio navigation aids

VOR radial/distance  VOR name  Freq  Var
DCAr045/9.0WASHINGTON VOR/DME111.0009W
ADWr356/10.7ANDREWS VORTAC113.1010W
BALr238/16.7BALTIMORE VORTAC115.1011W
OTTr343/18.5NOTTINGHAM VORTAC113.7010W
AMLr092/25.5ARMEL VOR/DME113.5008W
EMIr183/31.0WESTMINSTER VORTAC117.9008W
FDKr149/(33.4)FREDERICK VOR109.0008W

 
NDB name  Hdg/Dist  Freq  Var  ID
GEORGETOWN081/9.932309WGTN --. - -.
OXONN032/13.833211WDCA -.. -.-. .-
ELLICOTT211/19.637111WFND ..-. -. -..
DAVEE034/21.122309WDAA -.. .- .-

Airport Services

Fuel available: 100LL JET-A1+
Parking: tiedowns
Airframe service: NONE
Powerplant service: NONE
Bottled oxygen: NONE
Bulk oxygen: NONE

Runway Information

Runway 15/33

Dimensions: 2607 x 60 ft. / 795 x 18 m
Surface: asphalt, in excellent condition
Runway edge lights: medium intensity
RUNWAY 15  RUNWAY 33
Latitude: 38-58.995650N38-58.674748N
Longitude: 076-55.520488W076-55.154692W
Elevation: 48.4 ft.39.1 ft.
Traffic pattern: leftleft
Runway heading: 149 magnetic, 138 true329 magnetic, 318 true
Displaced threshold: 416 ft.201 ft.
Markings: nonprecision, in good conditionnonprecision, in good condition
Runway end identifier lights: nono
Touchdown point: yes, no lightsyes, no lights
Obstructions: 49 ft. trees, 346 ft. from runway, 2:1 slope to clear
+33' RAILROAD, 117 FM THD WITH OBS LTS
69 ft. trees, 1199 ft. from runway, 14:1 slope to clear
+15 FT FENCE 87 FT R AT THR; -6 FT DITCH 65 FT L AT THR.

Airport Ownership and Management from official FAA records

Ownership: Publicly-owned
Owner: MNCPPC
6611 KENILWORTH AVENUE
RIVERDALE, MD 20737
Phone 301-699-2255
THE MARYLAND NATIONAL CAPITAL PARK & PLANNING CMSN.
Manager: LEE SOMMER
1909 CORPORAL FRANK SCOTT DRIVE
COLLEGE PARK, MD 20740
Phone 301-864-5844

Airport Operational Statistics

Aircraft based on the field: 33
Single engine airplanes: 28
Helicopters: 4
Gliders airplanes: 1
    
Aircraft operations: avg 62/week *
70% local general aviation
26% transient general aviation
2% air taxi
2% military
* for 12-month period ending 02 September 2020

Additional Remarks

NO TKOFS 2200-0700; LNDG ONLY.
TSNT PRKG: FIRST 4 HRS FREE; FEE AFT, WAIVED W/MIN FUEL PURCHASE; OVNGT FEE.
HEL RAMP FEE; WAIVED IF UNDER 3500 LBS OR MIN FUEL PURCHASE.
ACFT HANDLING FEE IF RELOCATION TO/FROM FUEL AREA RQRD BY ARPT PSNL.
BLDG 0.1 NM S OF ARPT 23 FT AGL LGTD.
NO ACFT OVR 12500 LBS MFR GWT; HELS ONLY WITH 24 HR PPR - CALL AMGR 301-864-5844.
NOISE ABATEMENT PROCEDURES IN EFFECT CTC AMGR 301-864-5844.
AER 15 HEAVY SMOKE & FIREFIGHTING TRAINING OPNS INTERMITTENTLY IN PROGRESS.
NO STUDENT TGL OR SOLO OPNS PERMITTED.
DEER AND OTHER WILDLIFE ON & INVOF ARPT.
COMPLIANCE WITH 14CFR SECTION 93.335 IS REQUIRED BEFORE PILOTS MAY OPERATE TO/FROM THIS AIRPORT.
FOR CD CTC POTOMAC APCH AT 866-599-3874.

Instrument Procedures

NOTE: All procedures below are presented as PDF files. If you need a reader for these files, you should download the free Adobe Reader.

NOT FOR NAVIGATION. Please procure official charts for flight.
FAA instrument procedures published for use from 20 May 2021 at 0901Z to 17 June 2021 at 0900z.

 
IAPs - Instrument Approach Procedures
RNAV (GPS)-A   download (154KB)
RNAV (GPS)-B   download (151KB)
NOTE: Special Take-Off Minimums/Departure Procedures apply   download (366KB)

Other nearby airports with instrument procedures:

W00 - Freeway Airport (7 nm E)
KDCA - Ronald Reagan Washington NTL Airport (9 nm SW)
KFME - Tipton Airport (10 nm NE)
KADW - Joint Base Andrews (11 nm S)
W32 - Washington Executive Airport/Hyde Field (14 nm S)
KVKX - Potomac Airfield (14 nm S)
KGAI - Montgomery County Airpark (16 nm NW)
KBWI - Baltimore/Washington International Thurgood Marshall Airport (17 nm NE)
KANP - Lee Airport (17 nm E)
W50 - Davis Airport (19 nm NW)
 
Loc | Ops | Rwys | IFR | FBO | Links
Com | Nav | Svcs | Stats | Notes
Area around KCGS (College Park Airport)
 
Road maps at: MapQuest Bing Google
 
Aerial photo
WARNING: Photo may not be current or correct
Aerial photo of KCGS (College Park Airport)
Photo taken 19-Oct-2016
looking north.

Do you have a better or more recent aerial photo of College Park Airport that you would like to share? If so, please send us your photo.

 
Sectional chart

 
Airport distance calculator
Flying to College Park Airport? Find the distance to fly.

From to KCGS

Sunrise and sunset
Times for 14-Jun-2021
 Local
(UTC-4)
 Zulu
(UTC)
Morning civil twilight05:1009:10
Sunrise05:4209:42
Sunset20:3300:33
Evening civil twilight21:0501:05

Current date and time
Zulu (UTC)  14-Jun-2021 18:08:37
Local (UTC-4)  14-Jun-2021 14:08:37
 
METAR
KCGS 141755Z AUTO 24006KT 10SM SCT048 SCT060 29/18 A2979 RMK AO1 T02880178 10288 20216
KDCA 
9nm SW 
141752Z 25006KT 10SM SCT045 SCT100 30/19 A2980 RMK AO2 SLP093 T03000189 10306 20217 58017
KFME 
10nm NE 
141755Z AUTO 26007KT 10SM SCT042 BKN050 28/20 A2982 RMK AO1
KADW 
10nm S 
141756Z AUTO 00000KT 10SM FEW170 SCT200 28/18 A2980 RMK AO2 SLP096 60000 T02830184 10284 20213 57016 $
KBWI 
16nm NE 
141754Z 23003KT 10SM SCT037 SCT100 29/18 A2979 RMK AO2 SLP087 T02890183 10294 20217 58018
KGAI 
16nm NW 
141756Z AUTO 26005KT 10SM FEW042 SCT055 28/19 A2983 RMK AO2 SLP111 T02830194 10283 20228 58015
KDAA 
20nm SW 
141756Z AUTO 29004KT 10SM FEW036 30/20 A2980 RMK AO2 SLP094 T02960199 10296 20220 57018 $
TAF
KDCA 
9nm SW 
141721Z 1418/1524 19004KT P6SM SCT100 FM150100 29004KT P6SM VCTS BKN080CB FM150500 35004KT P6SM BKN050 FM151500 32010G22KT P6SM SCT120
KADW 
10nm S 
141700Z 1417/1523 24009KT 9999 SCT050 SCT120 QNH2973INS BECMG 1423/1424 VRB06KT 9999 SCT030 QNH2970INS BECMG 1502/1503 25025G35KT 4800 TSRA BKN030CB QNH2975INS TEMPO 1503/1506 25035G50KT BECMG 1505/1506 30009KT 9999 NSW BKN030 510703 QNH2976INS BECMG 1509/1510 30009KT 9999 SCT050 QNH2983INS BECMG 1513/1514 31015G25KT 9999 FEW100 QNH2981INS TX30/1419Z TN20/1509Z
KBWI 
16nm NE 
141721Z 1418/1524 25005KT P6SM SCT060 FM142100 19006KT P6SM SCT120 FM150100 VRB04KT P6SM VCTS BKN080CB FM150500 30003KT P6SM BKN020 FM151000 33004KT P6SM BKN050
KDAA 
20nm SW 
141200Z 1412/1518 17006KT 9999 BKN040 QNH2984INS BECMG 1412/1413 28010KT 9999 BKN250 QNH2984INS BECMG 1417/1418 27006KT 9999 VCTS BKN050CB QNH2974INS BECMG 1502/1503 16006KT 9999 VCSH SCT050 BKN100 BKN250 QNH2972INS BECMG 1503/1504 18008KT 9999 -SHRA BKN050 BKN100 BKN250 QNH2972INS BECMG 1505/1506 21008KT 8000 -SHRA VCTS BKN030CB BKN050 BKN100 BKN250 QNH2970INS BECMG 1507/1508 29010G15KT 9999 VCSH SCT050 BKN100 BKN250 QNH2970INS BECMG 1508/1509 30010G15KT 9999 NSW FEW100 SCT250 QNH2972INS BECMG
NOTAMs
Click for the latest NOTAMs
NOTAMs are issued by the DoD/FAA and will open in a separate window not controlled by AirNav.

 

 
 

FBO, Fuel Providers, and Aircraft Ground Support

  
 Business Name 
 
 Contact 
 
 Services / Description 
 
Fuel Prices
 
Comments
  
College Park Airport 301-864-5844
no information available

If you are affiliated with College Park Airport and would like to show here your services, contact info, web link, logo, and more, click here
100LL Jet A
FS --- $3.85 
PS $4.85 --- 
 Updated 10-Jun-2021
 
   1 read write
FS=Full service
PS=Pump service
Update Fuel Prices
 

Getting Around: Taxi, Limo, Rental Cars, Mass Transit

  
 Business Name 
 
 Contact 
 
Services / Description
 
Comments
  
Metrorail [web site]
no information available

If you are affiliated with Metrorail and would like to show here your services, contact info, web link, logo, and more, click here
 
   write
 

Things to do: Attractions on or near the airport

  
 Business Name 
 
 Contact 
 
 Services / Description 
 
Distance
 
Comments
  
College Park Aviation Museum 301-864-6029
no information available

If you are affiliated with College Park Aviation Museum and would like to show here your services, contact info, web link, logo, and more, click here
on airport  
   write
 

Would you like to see your business listed on this page?

 If your business provides an interesting product or service to pilots, flight crews, aircraft, or users of the College Park Airport, you should consider listing it here.  To start the listing process, click on the button below
 
Add a business
 

Other Pages about College Park Airport

www.collegeparkairport.org
www.pgparks.com/...
 
Update a link
 
Copyright © AirNav, LLC. All rights reserved. Privacy Policy  Contact